Location: Unspecified
(41.9031°N, 12.4386°E)
Time: 05:56:10
(UTC+01:00)

ISS - Pass Details

Date: 06 December 2019
Orbit: 411 x 421 km, 51.6° (Epoch: 15 December)

Event Time Altitude Azimuth Distance (km) Brightness Sun altitude
Rises 18:25:15 0° 307° (NW) 2,361 0.6 -19.1°
Reaches altitude 10° 18:27:25 10° 315° (NW) 1,497 -0.6 -19.5°
Enters shadow 18:29:48 34° 350° (N) 716 -2.7 -19.9°
